When you browse on this site, cookies collect data to enhance your experience and personalize the content and advertising you see.
Visit our Privacy Policy to learn more. By continuing to use the site, you agree to this use of cookies and data.
  • En España
  • Lista de países
  • Para 7 días
  • Temperatura del agua
  • El tiempo en el mapa
  • Informadores
  • user-avatar
    Iniciar sesión

    Tiempo cada hora Punta Arenas

    Hoy, 19 Febrero, Miércoles

    Tiempo Temperatura Precipitaciones Viento Presión Humedad
    00:00 +3°C° 0 mm 11 mps 748 mmHg 82%
    01:00 +2°C° 0 mm 11 mps 748 mmHg 81%
    02:00 +2°C° 0 mm 11 mps 749 mmHg 82%
    03:00 +2°C° 0 mm 11 mps 750 mmHg 82%
    04:00 +2°C° 0 mm 11 mps 750 mmHg 83%
    05:00 +2°C° 0 mm 12 mps 751 mmHg 80%
    06:00 +3°C° 0 mm 12 mps 752 mmHg 77%
    07:00 +3°C° 0 mm 12 mps 753 mmHg 74%
    08:00 +4°C° 0 mm 12 mps 753 mmHg 71%
    09:00 +5°C° 0 mm 12 mps 754 mmHg 68%
    10:00 +5°C° 0 mm 12 mps 755 mmHg 65%
    11:00 +7°C° 0 mm 12 mps 755 mmHg 64%
    12:00 +7°C° 0 mm 12 mps 756 mmHg 62%
    13:00 +7°C° 0 mm 12 mps 756 mmHg 61%
    14:00 +7°C° 0 mm 11 mps 757 mmHg 62%
    15:00 +7°C° 0 mm 11 mps 758 mmHg 63%
    16:00 +6°C° 0 mm 10 mps 759 mmHg 64%
    17:00 +6°C° 0 mm 9 mps 760 mmHg 66%
    18:00 +5°C° 0 mm 8 mps 760 mmHg 69%
    19:00 +4°C° 0 mm 8 mps 761 mmHg 71%
    20:00 +4°C° 0 mm 7 mps 762 mmHg 73%
    21:00 +3°C° 0 mm 7 mps 763 mmHg 75%
    22:00 +3°C° 0 mm 6 mps 764 mmHg 78%
    23:00 +2°C° 0 mm 6 mps 764 mmHg 79%

    Mañana, 20 Febrero, Jueves

    Tiempo Temperatura Precipitaciones Viento Presión Humedad
    00:00 +2°C° 0 mm 6 mps 764 mmHg 80%
    01:00 +2°C° 0 mm 5 mps 764 mmHg 82%
    02:00 +2°C° 0 mm 5 mps 765 mmHg 82%
    03:00 +3°C° 0 mm 4 mps 765 mmHg 83%
    04:00 +3°C° 0 mm 3 mps 765 mmHg 84%
    05:00 +4°C° 0 mm 3 mps 765 mmHg 79%
    06:00 +5°C° 0 mm 3 mps 765 mmHg 75%
    07:00 +8°C° 0 mm 2 mps 766 mmHg 70%
    08:00 +9°C° 0 mm 2 mps 766 mmHg 65%
    09:00 +11°C° 0 mm 3 mps 766 mmHg 61%
    10:00 +12°C° 0 mm 3 mps 766 mmHg 56%
    11:00 +13°C° 0 mm 3 mps 766 mmHg 55%
    12:00 +14°C° 0 mm 3 mps 766 mmHg 54%
    13:00 +16°C° 0 mm 3 mps 765 mmHg 53%
    14:00 +16°C° 0 mm 3 mps 765 mmHg 54%
    15:00 +16°C° 0 mm 3 mps 765 mmHg 55%
    16:00 +17°C° 0 mm 3 mps 765 mmHg 56%
    17:00 +14°C° 0 mm 3 mps 765 mmHg 63%
    18:00 +12°C° 0 mm 3 mps 765 mmHg 69%
    19:00 +12°C° 0 mm 2 mps 765 mmHg 76%
    20:00 +10°C° 0 mm 2 mps 765 mmHg 77%
    21:00 +10°C° 0 mm 2 mps 765 mmHg 78%
    22:00 +10°C° 0 mm 2 mps 765 mmHg 79%
    23:00 +10°C° 0 mm 2 mps 765 mmHg 81%

    Pasado mañana, 21 Febrero, Viernes

    Tiempo Temperatura Precipitaciones Viento Presión Humedad
    00:00 +10°C° 0 mm 2 mps 765 mmHg 84%
    01:00 +9°C° 0 mm 3 mps 765 mmHg 86%
    08:00 +15°C° 0 mm 2 mps 764 mmHg 74%
    09:00 +17°C° 0 mm 3 mps 764 mmHg 68%
    10:00 +19°C° 0 mm 3 mps 764 mmHg 62%
    11:00 +19°C° 0 mm 3 mps 763 mmHg 60%
    12:00 +20°C° 0 mm 3 mps 763 mmHg 58%
    13:00 +21°C° 0 mm 3 mps 762 mmHg 56%
    14:00 +21°C° 0 mm 3 mps 762 mmHg 55%
    15:00 +20°C° 0 mm 3 mps 762 mmHg 55%
    16:00 +20°C° 0 mm 3 mps 761 mmHg 54%
    17:00 +18°C° 0 mm 2 mps 761 mmHg 63%
    18:00 +16°C° 0 mm 2 mps 761 mmHg 72%
    19:00 +14°C° 0 mm 2 mps 761 mmHg 80%
    20:00 +14°C° 0 mm 2 mps 761 mmHg 81%
    21:00 +13°C° 0 mm 2 mps 760 mmHg 82%
    22:00 +13°C° 0 mm 1 mps 760 mmHg 83%
    23:00 +13°C° 0 mm 1 mps 760 mmHg 84%

    22 Febrero, Sábado

    Tiempo Temperatura Precipitaciones Viento Presión Humedad
    00:00 +12°C° 0 mm 1 mps 759 mmHg 85%
    01:00 +12°C° 0 mm 1 mps 759 mmHg 86%
    02:00 +12°C° 0 mm 1 mps 758 mmHg 87%
    03:00 +11°C° 0 mm 1 mps 758 mmHg 88%
    04:00 +11°C° 0 mm 1 mps 758 mmHg 90%
    05:00 +12°C° 0 mm 1 mps 757 mmHg 87%
    06:00 +13°C° 0 mm 1 mps 756 mmHg 84%
    07:00 +14°C° 0 mm 1 mps 756 mmHg 81%
    08:00 +15°C° 0 mm 1 mps 755 mmHg 75%
    09:00 +18°C° 0 mm 1 mps 754 mmHg 70%
    10:00 +19°C° 0 mm 1 mps 753 mmHg 64%
    11:00 +19°C° 0 mm 2 mps 752 mmHg 61%
    12:00 +20°C° 0 mm 2 mps 751 mmHg 58%
    13:00 +21°C° 0 mm 3 mps 750 mmHg 55%
    14:00 +21°C° 0 mm 4 mps 749 mmHg 54%
    15:00 +21°C° 0 mm 5 mps 748 mmHg 53%
    16:00 +21°C° 0 mm 7 mps 748 mmHg 52%
    17:00 +18°C° 0 mm 8 mps 747 mmHg 60%
    18:00 +16°C° 0 mm 9 mps 747 mmHg 67%
    19:00 +13°C° 0 mm 10 mps 747 mmHg 74%
    20:00 +11°C° 0.1 mm 10 mps 747 mmHg 74%
    21:00 +9°C° 0.1 mm 10 mps 747 mmHg 73%
    22:00 +8°C° 0.1 mm 10 mps 747 mmHg 72%
    23:00 +7°C° 0.1 mm 10 mps 746 mmHg 76%

    23 Febrero, Domingo

    Tiempo Temperatura Precipitaciones Viento Presión Humedad
    00:00 +7°C° 0.1 mm 9 mps 746 mmHg 79%
    01:00 +6°C° 0.1 mm 9 mps 745 mmHg 83%
    02:00 +7°C° 0.2 mm 9 mps 745 mmHg 83%
    03:00 +7°C° 0.2 mm 9 mps 745 mmHg 83%
    04:00 +8°C° 0.2 mm 9 mps 745 mmHg 83%
    05:00 +8°C° 0.1 mm 9 mps 745 mmHg 84%
    06:00 +9°C° 0.1 mm 8 mps 745 mmHg 85%
    07:00 +8°C° 0.1 mm 7 mps 745 mmHg 85%
    08:00 +9°C° 0.1 mm 7 mps 744 mmHg 85%
    09:00 +9°C° 0.1 mm 7 mps 744 mmHg 84%
    10:00 +9°C° 0.1 mm 8 mps 744 mmHg 84%
    11:00 +8°C° 0.2 mm 9 mps 743 mmHg 83%
    12:00 +8°C° 0.2 mm 9 mps 743 mmHg 82%
    13:00 +8°C° 0.2 mm 10 mps 742 mmHg 82%
    14:00 +9°C° 0.1 mm 10 mps 742 mmHg 81%
    15:00 +10°C° 0.1 mm 9 mps 741 mmHg 80%
    16:00 +10°C° 0.1 mm 9 mps 741 mmHg 80%
    17:00 +9°C° 0 mm 8 mps 741 mmHg 78%
    18:00 +7°C° 0 mm 8 mps 741 mmHg 76%
    19:00 +7°C° 0 mm 8 mps 740 mmHg 74%
    20:00 +6°C° 0 mm 9 mps 740 mmHg 74%
    21:00 +5°C° 0 mm 10 mps 740 mmHg 75%
    22:00 +4°C° 0 mm 11 mps 739 mmHg 76%
    23:00 +3°C° 0.2 mm 11 mps 739 mmHg 79%

    24 Febrero, Lunes

    Tiempo Temperatura Precipitaciones Viento Presión Humedad
    00:00 +2°C° 0.2 mm 11 mps 738 mmHg 82%
    01:00 +2°C° 0.2 mm 11 mps 738 mmHg 85%
    02:00 +1°C° 0.1 mm 11 mps 738 mmHg 86%
    03:00 +1°C° 0.1 mm 11 mps 737 mmHg 88%
    04:00 0°C° 0.1 mm 12 mps 737 mmHg 89%
    05:00 0°C° 0.3 mm 12 mps 737 mmHg 88%
    06:00 +2°C° 0.3 mm 12 mps 736 mmHg 88%
    07:00 +1°C° 0.3 mm 13 mps 736 mmHg 87%
    08:00 +2°C° 0.5 mm 12 mps 735 mmHg 88%
    09:00 +2°C° 0.5 mm 12 mps 735 mmHg 88%
    10:00 +2°C° 0.5 mm 12 mps 735 mmHg 89%
    11:00 +3°C° 0.2 mm 13 mps 735 mmHg 88%
    12:00 +3°C° 0.2 mm 14 mps 734 mmHg 88%
    13:00 +2°C° 0.2 mm 15 mps 734 mmHg 87%
    14:00 +3°C° 0.6 mm 14 mps 734 mmHg 88%
    15:00 +4°C° 0.6 mm 13 mps 735 mmHg 88%
    16:00 +4°C° 0.6 mm 12 mps 735 mmHg 88%
    17:00 +4°C° 0.3 mm 12 mps 736 mmHg 88%
    18:00 +3°C° 0.3 mm 12 mps 736 mmHg 88%
    19:00 +3°C° 0.3 mm 12 mps 737 mmHg 89%
    20:00 +3°C° 0.1 mm 12 mps 738 mmHg 88%
    21:00 +3°C° 0.1 mm 12 mps 739 mmHg 87%
    22:00 +3°C° 0.1 mm 12 mps 740 mmHg 87%
    23:00 +2°C° 0.2 mm 12 mps 741 mmHg 87%
    Mostrar más